Tracking 20942 objects as of 10-Jul-2020
HD Live streaming from Space Station
objects crossing your sky now

SL-8 R/B

Track SL-8 R/B now!
10-day predictions


NORAD ID: 10992
Int'l Code: 1978-074B
Perigee: 965.1 km
Apogee: 991.6 km
Inclination: 82.9 °
Period: 104.5 minutes
Semi major axis: 7349 km
RCS: 4.7594 m2 (large)
Launch date: July 27, 1978
Source: Commonwealth of Independent States (former USSR) (CIS)
Launch site: PLESETSK MISSILE AND SPACE COMPLEX (PKMTR)

Note: This is a ROCKET BODY
aabbcc
Your satellite tracking list
Your tracking list is empty




NASA's NSSDC Master Catalog

Two Line Element Set (TLE):
1 10992U 78074B   20191.69815083  .00000122  00000-0  10620-3 0  9997
2 10992  82.9332 160.9735 0017989 230.3942 303.0445 13.77932972108893
Source of the keplerian elements: AFSPC